FW8595 Weather Reports


Display with metric or nautical units.
time (UTC)temp
F
wind
direction
speed
MPH
gust
MPH
rain 1hr
in
rain 24hr
in
rain mn
in
humidity
%
barometer
mb
20210927160226 58 221 0.0 4.0 0.00 0.00 0.00 88 1018.4
20210927154647 58 301 0.0 2.0 0.00 0.00 0.00 89 1018.2
20210927153154 58 275 1.0 4.0 0.00 0.00 0.00 89 1018.1
20210927151644 58 300 1.0 3.0 0.00 0.00 0.00 89 1017.8
20210927150239 58 288 1.0 4.0 0.00 0.00 0.00 89 1017.6
20210927144639 58 294 0.0 4.0 0.00 0.00 0.00 90 1017.5
20210927143139 57 282 2.0 4.0 0.00 0.00 0.00 90 1017.1
20210927141713 57 327 0.0 2.0 0.00 0.00 0.00 90 1017.1
20210927140208 57 270 1.0 3.0 0.00 0.00 0.00 89 1017.1
20210927134832 57 254 0.0 2.0 0.00 0.00 0.00 90 1016.7
20210927133344 57 0 0.0 3.0 0.00 0.00 0.00 89 1016.7
20210927131701 57 278 0.0 4.0 0.00 0.00 0.00 89 1016.6
20210927130405 58 287 1.0 6.0 0.00 0.00 0.00 89 1016.7
20210927124745 58 271 1.0 4.0 0.00 0.00 0.00 89 1016.7
20210927123225 58 0 1.0 2.0 0.00 0.00 0.00 89 1016.6
20210927121633 58 0 0.0 3.0 0.00 0.00 0.00 89 1016.5
20210927120206 58 0 0.0 3.0 0.00 0.00 0.00 89 1016.7
20210927114627 58 323 1.0 3.0 0.00 0.00 0.00 89 1016.8
20210927113212 58 263 1.0 3.0 0.00 0.00 0.00 89 1016.8
20210927111813 58 286 1.0 4.0 0.00 0.00 0.00 89 1017.0
20210927110158 58 0 0.0 3.0 0.00 0.00 0.00 89 1017.0
20210927104647 58 328 1.0 4.0 0.00 0.00 0.00 89 1017.1
20210927103130 58 325 1.0 3.0 0.00 0.00 0.00 89 1017.1
20210927101635 58 340 1.0 3.0 0.00 0.00 0.00 89 1017.3
20210927100154 58 0 0.0 1.0 0.00 0.00 0.00 89 1017.4
20210927094625 58 0 0.0 2.0 0.00 0.00 0.00 89 1017.5
20210927093222 58 0 0.0 2.0 0.00 0.00 0.00 89 1017.6
20210927091654 58 0 0.0 1.0 0.00 0.00 0.00 89 1017.7
20210927090228 58 0 0.0 0.0 0.00 0.00 0.00 89 1017.8
20210927084701 58 0 0.0 2.0 0.00 0.00 0.00 89 1017.9
20210927083219 58 335 0.0 3.0 0.00 0.00 0.00 89 1017.8
20210927081627 58 0 0.0 2.0 0.00 0.00 0.00 89 1017.8
20210927080110 58 0 0.0 2.0 0.00 0.00 0.00 89 1017.7
20210927074752 58 0 0.0 3.0 0.00 0.00 0.00 89 1017.7
20210927073310 58 0 0.0 2.0 0.00 0.00 0.00 89 1017.8
20210927071700 58 0 0.0 2.0 0.00 0.00 0.00 89 1017.8
20210927070144 58 0 0.0 2.0 0.00 0.00 0.00 89 1017.8
20210927064815 58 0 0.0 3.0 0.00 0.00 0.00 89 1017.7
20210927063121 58 0 1.0 3.0 0.00 0.00 0.00 89 1017.7
20210927061620 58 320 0.0 3.0 0.00 0.00 0.00 88 1017.6
20210927060152 58 0 1.0 4.0 0.00 0.00 0.00 88 1017.7
20210927054612 58 323 0.0 3.0 0.00 0.00 0.00 88 1017.5
20210927053242 58 0 1.0 3.0 0.00 0.00 0.00 87 1017.4
20210927051843 59 0 1.0 4.0 0.00 0.00 0.00 87 1017.3
20210927050210 59 360 1.0 5.0 0.00 0.00 0.00 86 1017.2
20210927044740 59 282 1.0 4.0 0.00 0.00 0.00 86 1017.2
20210927043105 59 336 1.0 6.0 0.00 0.00 0.00 86 1017.1
20210927041628 59 269 0.0 4.0 0.00 0.00 0.00 87 1017.1
20210927040200 59 0 1.0 8.0 0.00 0.00 0.00 86 1017.0
20210927034632 58 0 1.0 3.0 0.00 0.00 0.00 87 1017.0
20210927033156 58 309 2.0 7.0 0.00 0.00 0.00 87 1016.8
20210927031629 58 288 1.0 6.0 0.00 0.00 0.00 87 1016.9
20210927030106 58 285 1.0 4.0 0.00 0.00 0.00 87 1016.9
20210927024619 58 314 1.0 5.0 0.00 0.00 0.00 86 1016.8
20210927023245 58 301 0.0 6.0 0.00 0.00 0.00 85 1016.7
20210927021630 59 268 2.0 4.0 0.00 0.00 0.00 84 1016.8
20210927020303 59 301 1.0 4.0 0.00 0.00 0.00 84 1016.7
20210927014732 60 331 1.0 5.0 0.00 0.00 0.00 83 1016.6
20210927013120 61 306 1.0 7.0 0.00 0.00 0.00 82 1016.4
20210927011638 61 309 4.0 10.0 0.00 0.00 0.00 80 1016.5
20210927010118 62 268 2.0 7.0 0.00 0.00 0.00 79 1016.6
20210927004623 63 309 3.0 7.0 0.00 0.00 0.00 77 1016.5
20210927003123 64 304 2.0 7.0 0.00 0.00 0.00 75 1016.6
20210927001726 64 334 3.0 8.0 0.00 0.00 0.00 74 1016.7
20210927000136 65 319 2.0 8.0 0.00 0.00 0.00 73 1016.6
20210926234654 66 294 4.0 9.0 0.00 0.00 0.00 72 1016.6
20210926233216 66 283 2.0 8.0 0.00 0.00 0.00 71 1016.8
20210926231640 67 317 2.0 9.0 0.00 0.00 0.00 68 1016.9
20210926230323 68 348 4.0 10.0 0.00 0.00 0.00 68 1016.9
20210926224652 67 321 2.0 9.0 0.00 0.00 0.00 69 1016.8
20210926223145 67 352 3.0 8.0 0.00 0.00 0.00 67 1017.0
20210926221714 68 250 2.0 9.0 0.00 0.00 0.00 67 1016.8
20210926220216 68 313 3.0 9.0 0.00 0.00 0.00 67 1017.0
20210926214558 68 318 4.0 10.0 0.00 0.00 0.00 67 1016.9
20210926213201 68 264 3.0 10.0 0.00 0.00 0.00 66 1016.8
20210926211609 68 287 2.0 7.0 0.00 0.00 0.00 67 1016.9
20210926210215 68 325 3.0 8.0 0.00 0.00 0.00 67 1017.1
20210926204728 69 328 3.0 9.0 0.00 0.00 0.00 66 1017.2
20210926203239 69 330 3.0 8.0 0.00 0.00 0.00 66 1017.3
20210926201738 70 306 1.0 7.0 0.00 0.00 0.00 66 1017.3
20210926200114 70 0 1.0 4.0 0.00 0.00 0.00 67 1017.4
20210926194732 69 360 1.0 4.0 0.00 0.00 0.00 67 1017.4
20210926193152 68 283 0.0 4.0 0.00 0.00 0.00 69 1017.4
20210926191703 67 302 1.0 3.0 0.00 0.00 0.00 72 1017.5
20210926190132 66 0 1.0 4.0 0.00 0.00 0.00 73 1017.7
20210926184645 64 0 0.0 3.0 0.00 0.00 0.00 76 1017.7
20210926183212 63 345 1.0 3.0 0.00 0.00 0.00 77 1017.8
20210926181713 62 0 0.0 3.0 0.00 0.00 0.00 79 1017.9
20210926180118 61 329 0.0 2.0 0.00 0.00 0.00 82 1017.9
20210926174631 60 333 0.0 2.0 0.00 0.00 0.00 83 1017.9
20210926173127 59 309 1.0 3.0 0.00 0.00 0.00 84 1018.1
20210926171710 59 130 0.0 2.0 0.00 0.00 0.00 86 1018.2
20210926170137 58 0 0.0 3.0 0.00 0.00 0.00 87 1018.2
20210926164633 58 0 0.0 2.0 0.00 0.00 0.00 88 1018.1
20210926163147 57 167 0.0 3.0 0.00 0.00 0.00 88 1018.1
20210926161652 57 174 0.0 2.0 0.00 0.00 0.00 90 1018.1